Location: Crab Orchard
(37.7292°N, 88.8042°W)
Time: 21:17:21
(UTC+00:00)

ERBS - Pass Details

Date: 08 December 2019
Orbit: 410 x 430 km, 57.0° (Epoch: 17 January)

Event Time Altitude Azimuth Distance (km) Brightness Sun altitude
Rises 23:01:19 0° 320° (NW) 2,368 6.3 -5.3°
Reaches altitude 10° 23:03:25 10° 322° (NW) 1,505 5.2 -5.6°
Maximum altitude 23:06:47 74° 48° (NE) 444 2.2 -6.2°
Drops below altitude 10° 23:10:08 10° 133° (SE) 1,508 4.8 -6.9°
Sets 23:12:14 0° 136° (SE) 2,373 5.8 -7.2°
